CZ-6A DEB, 60797

Orbit data source: Space-Track

CZ-6A DEB, 60797 is space debris in LEO originally from a launch on Tue, 06 Aug 2024 UTC launched from the Taiyaun Space Center, China (TSC). Debris objects in space refer to the collection of defunct objects orbiting the Earth. Examples of debris include non-operational satellites, rocket bodies, and fragments generated from explosions, collisions, or faulty payload assembly.

Loading next visibility...
Identifier
60797, 2024-140FY
Orbit
LEO
Country
Flag of CNCN / PRC
Related business
Manufacturer
SAST
Mission
Spacecraft
Bus & Motor
Unknown
Mass
Unknown
Launch date (UTC)
2024-08-06 (1 year ago)
Launch vehicle
Unknown
Launch site
Taiyaun Space Center, China (TSC)
Object type
Payload
Rocket body
Debris
Shape & HBR
Unknown shape, 0.2 m
Radar Cross Section
Medium (>0.1 m² and <1 m²)

Expand to show TLE details & history
Last TLE update: 16 hours ago

TLE from 16 hours ago
0 CZ-6A DEB
1 60797U 24140FY  25351.79320446  .00001664  00000-0  46284-3 0  9995
2 60797  88.8564 284.4476 0105991 112.6243 248.6212 14.42667730 70977
Epoch: 2025-12-17T19:02Z
TLE epoch observation values (Epoch: 2025-12-17T19:02:12.865Z)
Latitude
-0.00005°
Longitude
-87.76397°
Altitude
781.02 km
Speed
7.449 km/s
True Right ascension
18h 57m 47s
True Declination
0° 00' 00"
Sunlit
Object was in daylight at epoch
Visualization orbit readout
Latitude
Unknown
Longitude
Unknown
Altitude
Unknown
Speed
Unknown
Apparent Right ascension
Unknown
Apparent Declination
Unknown
Sunlit
N/A
Visualization observer readout
Local Sidereal Time
10:08:08
Azimuth
Unknown
Elevation
Unknown
Doppler factor
Unknown
Orbital elements
Apogee altitude
822.133 km
Perigee altitude
671.101 km
Semi-major axis
7,124.754 km
Eccentricity
0.0106
Inclination
88.8564°
RAAN
284.4476°
Arg. of periapsis
112.6243°
True anomaly
247.49572°
Mean anomaly
248.6212°
Eccentric anomaly
248.05791°
Mean motion
3.60901 °/min
Orbital period
99.75 mins
BSTAR
0.00046284
Loading maneuver chart data...
Computing Atmospheric mass density...

Documentation

Showing up to 5 results
|